Fort Pierre, SD

3:01 PM MDT on August 28, 2016 (GMT -0600)
Pierre Regional

Weather History for KPIR - October, 2012

Change the Weather History Date:

Thursday, October 25, 2012

  Actual Average Record
Temperature  
Mean Temperature 34 °F 45 °F  
Max Temperature 37 °F 57 °F 88 °F (1940)
Min Temperature 31 °F 33 °F 14 °F (1997)
Degree Days  
Heating Degree Days 31 20  
Month to date heating degree days 401 378  
Since 1 July heating degree days 509 549  
Cooling Degree Days 0 0  
Month to date cooling degree days 0 2  
Year to date cooling degree days 1112 865  
Moisture  
Dew Point 24 °F    
Average Humidity 69    
Maximum Humidity 82    
Minimum Humidity 56    
Precipitation  
Precipitation 0.00 in 0.04 in 0.85 in (1954)
Month to date precipitation 0.35 1.42  
Year to date precipitation 10.46 18.47  
Snow  
Snow 0.00 in 0.10 in - ()
Month to date snowfall 0.0 0.6  
Since 1 July snowfall 0.0 0.6  
Snow Depth 0.00 in    
Sea Level Pressure  
Sea Level Pressure 30.22 in    
Wind  
Wind Speed 19 mph (NW)    
Max Wind Speed 28 mph    
Max Gust Speed 36 mph    
Visibility 10 miles    
Events      
T = Trace of Precipitation, MM = Missing Value Source: NWS Daily Summary

Daily Weather History Graph

Daily Weather History Graph

Search for Another Location

Airport or City:

Trip Planner

Search our weather history database for the weather conditions in past years. The results will help you decide how hot, cold, wet, or windy it might be!

Date:

Astronomy

Oct. 25, 2012 Rise Set
Actual Time 8:09 AM CDT 6:39 PM CDT
Civil Twilight 7:39 AM CDT 7:09 PM CDT
Nautical Twilight 7:05 AM CDT 7:43 PM CDT
Astronomical Twilight 6:32 AM CDT 8:17 PM CDT
Moon 4:33 PM CDT (10/25) 3:59 AM CDT (10/25)
Length of Visible Light 11h 29m
Length of Day
10h 30m
Waxing Gibbous, 84% of the Moon is Illuminated
Oct 25
Waxing Gibbous
Oct 29
Full
Nov 6
Last Quarter
Nov 13
New
Nov 20
First Quarter

Hourly Weather History & Observations

Time (CDT) Temp. Windchill Dew Point Humidity Pressure Visibility Wind Dir Wind Speed Gust Speed Precip Events Conditions
12:53 AM 35.1 °F 25.9 °F 28.0 °F 76% 30.08 in 10.0 mi NNW 13.8 mph - N/A   Overcast
1:53 AM 34.0 °F 24.6 °F 28.0 °F 79% 30.06 in 10.0 mi NNW 13.8 mph - N/A   Overcast
2:53 AM 34.0 °F 23.4 °F 26.1 °F 73% 30.08 in 10.0 mi NNW 17.3 mph - N/A   Scattered Clouds
3:53 AM 33.1 °F 23.0 °F 26.1 °F 75% 30.09 in 10.0 mi NNW 15.0 mph - N/A   Partly Cloudy
4:53 AM 33.1 °F 22.6 °F 26.1 °F 75% 30.12 in 10.0 mi NW 16.1 mph - N/A   Clear
5:53 AM 33.1 °F 23.9 °F 26.1 °F 75% 30.14 in 10.0 mi NNW 12.7 mph - N/A   Clear
7:53 AM 30.9 °F 20.2 °F 25.0 °F 79% 30.18 in 10.0 mi NW 15.0 mph 24.2 mph N/A   Mostly Cloudy
9:53 AM 32.0 °F 20.5 °F 25.0 °F 75% 30.21 in 10.0 mi NW 18.4 mph - N/A   Overcast
10:53 AM 33.1 °F 20.6 °F 24.1 °F 70% 30.22 in 10.0 mi NNW 23.0 mph - N/A   Overcast
11:53 AM 34.0 °F 21.8 °F 24.1 °F 67% 30.23 in 10.0 mi NW 23.0 mph 27.6 mph N/A   Overcast
12:53 PM 34.0 °F 21.5 °F 24.1 °F 67% 30.23 in 10.0 mi NW 24.2 mph 31.1 mph N/A   Overcast
1:53 PM 35.1 °F 23.0 °F 23.0 °F 61% 30.23 in 10.0 mi NW 24.2 mph 31.1 mph N/A   Overcast
2:53 PM 35.1 °F 23.3 °F 24.1 °F 64% 30.23 in 10.0 mi NW 23.0 mph 33.4 mph N/A   Overcast
3:53 PM 36.0 °F 23.7 °F 23.0 °F 59% 30.24 in 10.0 mi NW 26.5 mph 32.2 mph N/A   Overcast
4:53 PM 36.0 °F 23.9 °F 21.9 °F 57% 30.26 in 10.0 mi NW 25.3 mph - N/A   Overcast
5:53 PM 36.0 °F 24.4 °F 21.9 °F 57% 30.28 in 10.0 mi NW 23.0 mph - N/A   Overcast
6:53 PM 35.1 °F 23.8 °F 21.0 °F 57% 30.31 in 10.0 mi NW 20.7 mph - N/A   Overcast
7:53 PM 35.1 °F 24.1 °F 21.0 °F 57% 30.34 in 10.0 mi NW 19.6 mph 25.3 mph N/A   Overcast
8:53 PM 35.1 °F 23.5 °F 21.0 °F 57% 30.36 in 10.0 mi WNW 21.9 mph - N/A   Overcast
9:53 PM 35.1 °F 25.5 °F 21.9 °F 59% 30.37 in 10.0 mi NW 15.0 mph - N/A   Overcast
10:53 PM 34.0 °F 24.6 °F 21.9 °F 61% 30.39 in 10.0 mi NW 13.8 mph - N/A   Overcast